Terug naar catalogus

STARLINK-36743

ActiefCommunicatieVLEO
NORAD 67876·PAYLOAD·🇺🇸 United States

Gelanceerd Feb 20, 2026 vanaf Vandenberg Space Force Base

Loading…

Volgende Passages (komende 24 uur)

TLE

VersSource: CelesTrak SupGP

Epoch: Sep 14, 2026, 21:05 UTC

1 67876C 26034AC  26257.87895833  .00049488  00000+0  14623-2 0  2579
2 67876  53.1599  43.8943 0001103  65.1119 298.6892 15.34362668    16

Volg STARLINK-36743 in realtime met AllMySat

Download on the App Store